Location: Peterborough
(44.3091°N, 78.3197°W)
Time: 16:01:06
(UTC-04:00)

Transit 2A Rocket - Pass Details

Date: 27 March 2023
Orbit: 584 x 914 km, 66.7° (Epoch: 04 June)

Event Time Altitude Azimuth Distance (km) Brightness Sun altitude
Rises 12:54:05 0° 233° (SW) 3,267 8.5 48.0°
Reaches altitude 10° 12:56:32 10° 240° (WSW) 2,392 7.9 48.1°
Maximum altitude 13:01:48 43° 311° (NW) 1,195 6.2 48.2°
Drops below altitude 10° 13:07:29 10° 22° (NNE) 2,571 7.5 48.3°
Sets 13:10:12 0° 29° (NNE) 3,538 8.1 48.3°
